Weather History for KDXX - March, 2013

Change the Weather History Date:

Saturday, March 30, 2013

  Actual Average (KAQP) Record (KAQP)
Temperature  
Mean Temperature 39 °F -  
Max Temperature 46 °F 43 °F 73 °F (2015)
Min Temperature 32 °F 25 °F 14 °F (2011)
Degree Days  
Heating Degree Days 26    
Moisture  
Dew Point 34 °F    
Average Humidity 87    
Maximum Humidity 100    
Minimum Humidity 76    
Precipitation  
Precipitation 0.00 in - - ()
Sea Level Pressure  
Sea Level Pressure 29.93 in    
Wind  
Wind Speed 9 mph (NW)    
Max Wind Speed 15 mph    
Max Gust Speed 20 mph    
Visibility 5 miles    
Events Fog , Rain , Snow , Thunderstorm    
Averages and records for this station are not official NWS values.
T = Trace of Precipitation, MM = Missing Value Source: NWS Daily Summary

Daily Weather History Graph

Daily Weather History Graph

Search for Another Location

Airport or City:

Trip Planner

Search our weather history database for the weather conditions in past years. The results will help you decide how hot, cold, wet, or windy it might be!

Date:

Astronomy

Mar. 30, 2013 Rise Set
Actual Time 7:08 AM CDT 7:50 PM CDT
Civil Twilight 6:39 AM CDT 8:19 PM CDT
Nautical Twilight 6:03 AM CDT 8:55 PM CDT
Astronomical Twilight 5:27 AM CDT 9:31 PM CDT
Moon No Moon Rise 8:54 AM CDT (3/30)
Length of Visible Light 13h 40m
Length of Day
12h 41m
Waning Gibbous, 86% of the Moon is Illuminated
Mar 30
Waning Gibbous
Apr 2
Last Quarter
Apr 10
New
Apr 18
First Quarter
Apr 25
Full

Hourly Weather History & Observations

Time (CDT) Temp. Windchill Dew Point Humidity Pressure Visibility Wind Dir Wind Speed Gust Speed Precip Events Conditions
12:14 AM 33.8 °F 30.8 °F 32.0 °F 93% 29.90 in 1.8 mi South 3.5 mph - N/A Thunderstorm Mostly Cloudy
12:33 AM 35.6 °F 27.5 °F 35.6 °F 100% 29.88 in 3.0 mi South 11.5 mph - N/A Thunderstorm Scattered Clouds
12:54 AM 37.4 °F 32.8 °F 33.8 °F 87% 29.87 in 7.0 mi South 5.8 mph - N/A Thunderstorm Clear
1:14 AM 37.4 °F 30.8 °F 33.8 °F 87% 29.87 in 10.0 mi South 9.2 mph - N/A Thunderstorm Scattered Clouds
1:33 AM 39.2 °F 35.0 °F 33.8 °F 81% 29.87 in 10.0 mi SW 5.8 mph - N/A   Mostly Cloudy
1:54 AM 42.8 °F 38.0 °F 35.6 °F 76% 29.89 in 10.0 mi West 8.1 mph - N/A   Overcast
2:14 AM 42.8 °F 35.4 °F 37.4 °F 81% 29.91 in 10.0 mi WNW 15.0 mph 19.6 mph N/A   Mostly Cloudy
2:33 AM 44.6 °F 38.1 °F 37.4 °F 76% 29.90 in 10.0 mi WNW 13.8 mph 19.6 mph N/A Rain Light Rain
2:54 AM 46.4 °F 41.1 °F 39.2 °F 76% 29.87 in 10.0 mi West 11.5 mph 18.4 mph N/A Rain Light Rain
3:14 AM 42.8 °F 36.6 °F 37.4 °F 81% 29.88 in 10.0 mi NW 11.5 mph - N/A   Mostly Cloudy
3:33 AM 41.0 °F 34.3 °F 37.4 °F 87% 29.88 in 10.0 mi NNW 11.5 mph - N/A   Scattered Clouds
3:54 AM 42.8 °F 36.6 °F 37.4 °F 81% 29.88 in 10.0 mi NW 11.5 mph - N/A   Scattered Clouds
4:14 AM 42.8 °F 37.5 °F 37.4 °F 81% 29.88 in 10.0 mi NW 9.2 mph - N/A   Scattered Clouds
4:33 AM 41.0 °F 36.4 °F 37.4 °F 87% 29.89 in 10.0 mi West 6.9 mph - N/A   Scattered Clouds
4:54 AM 41.0 °F 34.7 °F 37.4 °F 87% 29.89 in 10.0 mi WNW 10.4 mph - N/A   Mostly Cloudy
5:14 AM 39.2 °F 34.2 °F 35.6 °F 87% 29.89 in 10.0 mi NW 6.9 mph - N/A   Mostly Cloudy
5:33 AM 39.2 °F 32.5 °F 35.6 °F 87% 29.89 in 10.0 mi WNW 10.4 mph - N/A   Mostly Cloudy
5:54 AM 37.4 °F 30.8 °F 35.6 °F 93% 29.89 in 7.0 mi WNW 9.2 mph - N/A   Scattered Clouds
6:14 AM 37.4 °F 30.8 °F 33.8 °F 87% 29.90 in 7.0 mi WNW 9.2 mph - N/A   Clear
6:33 AM 35.6 °F 29.2 °F 33.8 °F 93% 29.90 in 5.0 mi WNW 8.1 mph - N/A   Clear
6:54 AM 35.6 °F 27.5 °F 32.0 °F 87% 29.91 in 3.0 mi NW 11.5 mph - N/A   Clear
7:14 AM 33.8 °F 25.3 °F 32.0 °F 93% 29.92 in 2.0 mi NW 11.5 mph - N/A   Clear
7:33 AM 33.8 °F 24.8 °F 32.0 °F 93% 29.93 in 0.5 mi NW 12.7 mph - N/A Fog Fog
7:54 AM 33.8 °F 24.8 °F 32.0 °F 93% 29.94 in 0.2 mi NW 12.7 mph - N/A   Overcast
8:13 AM 33.8 °F 26.4 °F 32.0 °F 93% 29.94 in 0.2 mi NW 9.2 mph - N/A   Overcast
8:33 AM 33.8 °F 27.0 °F 32.0 °F 93% 29.95 in 0.2 mi NW 8.1 mph - N/A Snow Light Snow
8:54 AM 33.8 °F 25.8 °F 33.8 °F 100% 29.95 in 0.2 mi NW 10.4 mph - N/A Fog Fog
9:13 AM 33.8 °F 26.4 °F 33.8 °F 100% 29.95 in 0.2 mi NW 9.2 mph - N/A Fog Fog
9:34 AM 35.6 °F 29.2 °F 33.8 °F 93% 29.95 in 0.2 mi NW 8.1 mph - N/A Fog Fog
9:54 AM 35.6 °F 27.1 °F 33.8 °F 93% 29.95 in 0.2 mi NW 12.7 mph - N/A Fog Fog
10:13 AM 35.6 °F 28.0 °F 35.6 °F 100% 29.95 in 1.0 mi WNW 10.4 mph - N/A   Overcast
10:34 AM 37.4 °F 30.8 °F 35.6 °F 93% 29.95 in 4.0 mi WNW 9.2 mph - N/A   Clear
10:54 AM 37.4 °F 30.3 °F 33.8 °F 87% 29.95 in 5.0 mi NW 10.4 mph - N/A   Clear
11:13 AM 37.4 °F 30.3 °F 33.8 °F 87% 29.95 in 5.0 mi NW 10.4 mph - N/A   Clear
11:34 AM 39.2 °F 32.5 °F 33.8 °F 81% 29.95 in 5.0 mi NW 10.4 mph - N/A   Haze
11:54 AM 39.2 °F 32.5 °F 35.6 °F 87% 29.95 in 5.0 mi NW 10.4 mph - N/A   Clear
12:13 PM 39.2 °F 33.0 °F 33.8 °F 81% 29.95 in 5.0 mi NW 9.2 mph - N/A   Haze
12:34 PM 39.2 °F 32.5 °F 33.8 °F 81% 29.95 in 7.0 mi NW 10.4 mph - N/A   Clear
12:54 PM 41.0 °F 34.7 °F 35.6 °F 81% 29.95 in 7.0 mi NW 10.4 mph - N/A   Clear
1:13 PM 41.0 °F 34.3 °F 35.6 °F 81% 29.95 in 7.0 mi WNW 11.5 mph - N/A   Clear
1:34 PM 41.0 °F 33.5 °F 35.6 °F 81% 29.95 in 7.0 mi NW 13.8 mph - N/A   Clear
1:53 PM 41.0 °F 33.1 °F 33.8 °F 76% 29.95 in 7.0 mi NW 15.0 mph - N/A   Clear
2:14 PM 41.0 °F 34.3 °F 35.6 °F 81% 29.95 in 7.0 mi NW 11.5 mph - N/A   Clear
2:33 PM 41.0 °F 34.7 °F 35.6 °F 81% 29.95 in 7.0 mi NW 10.4 mph - N/A   Clear
2:53 PM 41.0 °F 33.9 °F 35.6 °F 81% 29.94 in 7.0 mi NNW 12.7 mph - N/A   Clear
3:14 PM 41.0 °F 33.9 °F 35.6 °F 81% 29.95 in 7.0 mi NNW 12.7 mph - N/A   Clear
3:33 PM 39.2 °F 33.0 °F 33.8 °F 81% 29.95 in 7.0 mi NNW 9.2 mph - N/A   Clear
3:53 PM 39.2 °F 32.0 °F 35.6 °F 87% 29.95 in 5.0 mi NNW 11.5 mph - N/A   Haze
4:14 PM 39.2 °F 32.5 °F 33.8 °F 81% 29.95 in 5.0 mi NNW 10.4 mph - N/A   Haze
4:33 PM 39.2 °F 32.0 °F 33.8 °F 81% 29.95 in 5.0 mi NNW 11.5 mph - N/A   Haze
4:53 PM 39.2 °F 33.0 °F 35.6 °F 87% 29.96 in 4.0 mi NNW 9.2 mph - N/A   Haze
5:14 PM 39.2 °F 33.0 °F 35.6 °F 87% 29.95 in 4.0 mi NNW 9.2 mph - N/A   Clear
5:33 PM 39.2 °F 33.0 °F 33.8 °F 81% 29.95 in 3.0 mi NNW 9.2 mph - N/A   Haze
5:53 PM 37.4 °F 29.3 °F 33.8 °F 87% 29.95 in 3.0 mi NW 12.7 mph - N/A   Clear
6:14 PM 37.4 °F 30.8 °F 33.8 °F 87% 29.95 in 3.0 mi NW 9.2 mph - N/A   Clear
6:33 PM 37.4 °F 31.4 °F 33.8 °F 87% 29.94 in 3.0 mi NW 8.1 mph - N/A   Clear
6:53 PM 37.4 °F 31.4 °F 33.8 °F 87% 29.95 in 2.5 mi NW 8.1 mph - N/A   Clear
7:14 PM 35.6 °F 32.8 °F 33.8 °F 93% 29.95 in 2.5 mi NW 3.5 mph - N/A   Mist
7:34 PM 35.6 °F 32.8 °F 33.8 °F 93% 29.94 in 2.5 mi WNW 3.5 mph - N/A   Mist
7:53 PM 35.6 °F 29.9 °F 33.8 °F 93% 29.94 in 3.0 mi NW 6.9 mph - N/A   Scattered Clouds
8:14 PM 35.6 °F 29.9 °F 32.0 °F 87% 29.94 in 4.0 mi WNW 6.9 mph - N/A   Clear
8:33 PM 33.8 °F 29.6 °F 32.0 °F 93% 29.95 in 3.0 mi West 4.6 mph - N/A   Clear
8:54 PM 33.8 °F 27.7 °F 30.2 °F 87% 29.95 in 2.5 mi West 6.9 mph - N/A   Clear
9:13 PM 33.8 °F 29.6 °F 30.2 °F 87% 29.95 in 2.5 mi West 4.6 mph - N/A   Clear
9:34 PM 33.8 °F 27.7 °F 30.2 °F 87% 29.94 in 2.5 mi WNW 6.9 mph - N/A   Clear
9:54 PM 32.0 °F 26.4 °F 30.2 °F 93% 29.95 in 2.5 mi WNW 5.8 mph - N/A   Clear
10:13 PM 32.0 °F 26.4 °F 30.2 °F 93% 29.95 in 2.5 mi WNW 5.8 mph - N/A   Clear
10:34 PM 32.0 °F 26.4 °F 30.2 °F 93% 29.95 in 3.0 mi WNW 5.8 mph - N/A   Clear
10:54 PM 32.0 °F 24.8 °F 30.2 °F 93% 29.96 in 3.0 mi WNW 8.1 mph - N/A   Clear
11:13 PM 33.8 °F 24.3 °F 32.0 °F 93% 29.96 in 2.5 mi NW 13.8 mph 17.3 mph N/A   Scattered Clouds
11:34 PM 33.8 °F 27.7 °F 32.0 °F 93% 29.95 in 2.5 mi NW 6.9 mph - N/A   Mist
11:53 PM 33.8 °F 27.7 °F 32.0 °F 93% 29.95 in 2.5 mi WNW 6.9 mph - N/A   Mist